TimeCST,TemperatureF,Dew PointF,Humidity,Sea Level PressureIn,VisibilityMPH,Wind Direction,Wind SpeedMPH,Gust SpeedMPH,PrecipitationIn,Events,Conditions,WindDirDegrees,DateUTC
12:58 AM,34.0,34.0,100,30.27,10.0,Calm,Calm,-,N/A,,Clear,0,2012-11-15 06:58:00
1:58 AM,34.0,33.1,96,30.25,10.0,Calm,Calm,-,N/A,,Clear,0,2012-11-15 07:58:00
2:58 AM,33.1,32.0,96,30.26,10.0,Calm,Calm,-,N/A,,Clear,0,2012-11-15 08:58:00
3:58 AM,32.0,32.0,100,30.27,9.0,Calm,Calm,-,N/A,,Clear,0,2012-11-15 09:58:00
4:58 AM,32.0,30.9,96,30.27,9.0,Calm,Calm,-,N/A,,Clear,0,2012-11-15 10:58:00
5:58 AM,30.9,30.9,100,30.27,8.0,NW,3.5,-,N/A,,Clear,310,2012-11-15 11:58:00
6:58 AM,33.1,32.0,96,30.30,8.0,North,3.5,-,N/A,,Clear,350,2012-11-15 12:58:00
7:58 AM,41.0,37.9,89,30.31,9.0,North,3.5,-,N/A,,Clear,360,2012-11-15 13:58:00
8:58 AM,46.9,41.0,80,30.31,10.0,ENE,4.6,-,N/A,,Clear,60,2012-11-15 14:58:00
9:58 AM,53.1,42.1,66,30.32,10.0,North,4.6,-,N/A,,Clear,350,2012-11-15 15:58:00
10:58 AM,59.0,41.0,51,30.30,10.0,ENE,8.1,-,N/A,,Clear,60,2012-11-15 16:58:00
11:58 AM,-9999,-9999,N/A,30.27,-9999.0,North,6.9,-,N/A,,Clear,360,2012-11-15 17:58:00
12:58 PM,61.0,42.1,50,30.25,10.0,Variable,3.5,-,N/A,,Clear,0,2012-11-15 18:58:00
1:58 PM,62.1,42.1,48,30.24,10.0,NE,6.9,-,N/A,,Clear,40,2012-11-15 19:58:00
2:58 PM,62.1,42.1,48,30.22,10.0,NNE,8.1,-,N/A,,Clear,20,2012-11-15 20:58:00
3:58 PM,59.0,42.1,53,30.23,10.0,North,6.9,-,N/A,,Clear,10,2012-11-15 21:58:00
4:58 PM,54.0,45.0,72,30.23,10.0,NNW,3.5,-,N/A,,Clear,340,2012-11-15 22:58:00
5:58 PM,50.0,46.0,86,30.25,10.0,Calm,Calm,-,N/A,,Clear,0,2012-11-15 23:58:00
6:58 PM,48.9,45.0,86,30.26,10.0,Calm,Calm,-,N/A,,Clear,0,2012-11-16 00:58:00
7:58 PM,46.0,44.1,93,30.27,10.0,Calm,Calm,-,N/A,,Clear,0,2012-11-16 01:58:00
8:58 PM,45.0,44.1,97,30.28,10.0,Calm,Calm,-,N/A,,Clear,0,2012-11-16 02:58:00
9:58 PM,44.1,42.1,93,30.29,10.0,SSW,3.5,-,N/A,,Clear,210,2012-11-16 03:58:00
10:58 PM,43.0,41.0,93,30.28,10.0,Calm,Calm,-,N/A,,Clear,0,2012-11-16 04:58:00
11:58 PM,41.0,39.9,96,30.28,10.0,Calm,Calm,-,N/A,,Clear,0,2012-11-16 05:58:00